| time (UTC) | temp F | wind direction | speed MPH | gust MPH | rain 1hr in | rain 24hr in | rain mn in | humidity % | barometer mb |
| 20260506212250 | 85 | 0 | 0.0 | 0.0 | 0.00 | 0.00 | 0.00 | 84 | 994.0 |
| 20260506211751 | 85 | 0 | 0.0 | 2.0 | 0.00 | 0.00 | 0.00 | 84 | 994.0 |
| 20260506211250 | 85 | 0 | 0.0 | 2.0 | 0.00 | 0.00 | 0.00 | 84 | 994.0 |
| 20260506210751 | 85 | 0 | 0.0 | 1.0 | 0.00 | 0.00 | 0.00 | 85 | 994.0 |
| 20260506210514 | 85 | 0 | 0.0 | 2.0 | 0.00 | 0.00 | 0.00 | 85 | 994.0 |
| 20260506205752 | 85 | 0 | 1.0 | 4.0 | 0.00 | 0.00 | 0.00 | 85 | 994.2 |
| 20260506205251 | 85 | 0 | 1.0 | 4.0 | 0.00 | 0.00 | 0.00 | 85 | 994.4 |
| 20260506204750 | 84 | 0 | 0.0 | 3.0 | 0.00 | 0.00 | 0.00 | 85 | 994.3 |
| 20260506204250 | 84 | 0 | 0.0 | 1.0 | 0.00 | 0.00 | 0.00 | 86 | 994.2 |
| 20260506203751 | 84 | 0 | 0.0 | 0.0 | 0.00 | 0.00 | 0.00 | 86 | 994.3 |
| 20260506203250 | 84 | 0 | 0.0 | 0.0 | 0.00 | 0.00 | 0.00 | 87 | 994.3 |
| 20260506202750 | 83 | 0 | 0.0 | 0.0 | 0.00 | 0.00 | 0.00 | 88 | 994.4 |
| 20260506202251 | 83 | 0 | 0.0 | 0.0 | 0.00 | 0.00 | 0.00 | 88 | 994.4 |
| 20260506201749 | 83 | 0 | 0.0 | 0.0 | 0.00 | 0.00 | 0.00 | 88 | 994.5 |
| 20260506201250 | 82 | 0 | 0.0 | 0.0 | 0.00 | 0.00 | 0.00 | 89 | 994.5 |
| 20260506200747 | 82 | 0 | 0.0 | 0.0 | 0.00 | 0.00 | 0.00 | 90 | 994.6 |
| 20260506200242 | 82 | 0 | 0.0 | 0.0 | 0.00 | 0.00 | 0.00 | 90 | 994.7 |
| 20260506195742 | 81 | 0 | 0.0 | 0.0 | 0.00 | 0.00 | 0.00 | 90 | 994.8 |
| 20260506195242 | 81 | 0 | 0.0 | 0.0 | 0.00 | 0.00 | 0.00 | 90 | 994.9 |
| 20260506195002 | 81 | 0 | 0.0 | 0.0 | 0.00 | 0.00 | 0.00 | 90 | 995.0 |
| 20260506194242 | 81 | 0 | 0.0 | 0.0 | 0.00 | 0.00 | 0.00 | 90 | 994.9 |
| 20260506193742 | 81 | 0 | 0.0 | 0.0 | 0.00 | 0.00 | 0.00 | 91 | 995.0 |
| 20260506193242 | 80 | 0 | 0.0 | 2.0 | 0.00 | 0.00 | 0.00 | 91 | 994.9 |
| 20260506192742 | 80 | 0 | 0.0 | 2.0 | 0.00 | 0.00 | 0.00 | 91 | 995.0 |
| 20260506192242 | 80 | 0 | 0.0 | 1.0 | 0.00 | 0.00 | 0.00 | 92 | 995.0 |
| 20260506191742 | 80 | 0 | 0.0 | 1.0 | 0.00 | 0.00 | 0.00 | 91 | 995.0 |
| 20260506191504 | 80 | 0 | 0.0 | 1.0 | 0.00 | 0.00 | 0.00 | 91 | 995.1 |
| 20260506190742 | 80 | 0 | 0.0 | 1.0 | 0.00 | 0.00 | 0.00 | 91 | 995.2 |
| 20260506190242 | 80 | 0 | 0.0 | 1.0 | 0.00 | 0.00 | 0.00 | 90 | 995.2 |
| 20260506185742 | 80 | 0 | 0.0 | 2.0 | 0.00 | 0.00 | 0.00 | 90 | 995.1 |
| 20260506185241 | 80 | 0 | 0.0 | 2.0 | 0.00 | 0.00 | 0.00 | 90 | 995.2 |
| 20260506184743 | 81 | 0 | 0.0 | 2.0 | 0.00 | 0.00 | 0.00 | 89 | 995.2 |
| 20260506184242 | 81 | 0 | 0.0 | 2.0 | 0.00 | 0.00 | 0.00 | 89 | 995.2 |
| 20260506184006 | 81 | 0 | 0.0 | 2.0 | 0.00 | 0.00 | 0.00 | 88 | 995.3 |
| 20260506183238 | 82 | 0 | 0.0 | 2.0 | 0.00 | 0.00 | 0.00 | 88 | 995.4 |
| 20260506183007 | 82 | 0 | 1.0 | 2.0 | 0.00 | 0.00 | 0.00 | 88 | 995.5 |
| 20260506182238 | 82 | 0 | 0.0 | 2.0 | 0.00 | 0.00 | 0.00 | 88 | 995.5 |
| 20260506181737 | 82 | 0 | 0.0 | 1.0 | 0.00 | 0.00 | 0.00 | 88 | 995.7 |
| 20260506181238 | 82 | 0 | 0.0 | 1.0 | 0.00 | 0.00 | 0.00 | 88 | 995.8 |
| 20260506180738 | 82 | 0 | 0.0 | 1.0 | 0.00 | 0.00 | 0.00 | 88 | 995.8 |
| 20260506180238 | 82 | 0 | 0.0 | 2.0 | 0.00 | 0.00 | 0.00 | 88 | 996.0 |
| 20260506180012 | 82 | 0 | 0.0 | 2.0 | 0.00 | 0.00 | 0.00 | 88 | 996.1 |
| 20260506175238 | 82 | 0 | 0.0 | 1.0 | 0.00 | 0.00 | 0.00 | 88 | 996.2 |
| 20260506174737 | 82 | 0 | 0.0 | 2.0 | 0.00 | 0.00 | 0.00 | 88 | 996.3 |
| 20260506174238 | 82 | 19 | 0.0 | 2.0 | 0.00 | 0.00 | 0.00 | 88 | 996.5 |
| 20260506173739 | 82 | 0 | 0.0 | 1.0 | 0.00 | 0.00 | 0.00 | 88 | 996.5 |
| 20260506173459 | 82 | 0 | 0.0 | 1.0 | 0.00 | 0.00 | 0.00 | 88 | 996.6 |
| 20260506172738 | 82 | 0 | 0.0 | 2.0 | 0.00 | 0.00 | 0.00 | 88 | 996.7 |
| 20260506172237 | 82 | 194 | 0.0 | 2.0 | 0.00 | 0.00 | 0.00 | 88 | 996.6 |
| 20260506171735 | 82 | 194 | 0.0 | 2.0 | 0.00 | 0.00 | 0.00 | 87 | 996.7 |
| 20260506171233 | 81 | 195 | 0.0 | 1.0 | 0.00 | 0.00 | 0.00 | 88 | 996.6 |
| 20260506170735 | 81 | 195 | 0.0 | 1.0 | 0.00 | 0.00 | 0.00 | 88 | 996.7 |
| 20260506170232 | 81 | 195 | 0.0 | 1.0 | 0.00 | 0.00 | 0.00 | 88 | 996.8 |
| 20260506165729 | 81 | 194 | 0.0 | 0.0 | 0.00 | 0.00 | 0.00 | 89 | 996.8 |
| 20260506165228 | 81 | 194 | 0.0 | 0.0 | 0.00 | 0.00 | 0.00 | 89 | 996.8 |
| 20260506164727 | 81 | 194 | 0.0 | 1.0 | 0.00 | 0.00 | 0.00 | 88 | 996.8 |
| 20260506164226 | 81 | 194 | 0.0 | 3.0 | 0.00 | 0.00 | 0.00 | 89 | 996.8 |
| 20260506163726 | 81 | 194 | 1.0 | 4.0 | 0.00 | 0.00 | 0.00 | 88 | 996.7 |
| 20260506163223 | 81 | 176 | 1.0 | 4.0 | 0.00 | 0.00 | 0.00 | 88 | 996.5 |
| 20260506162722 | 81 | 209 | 0.0 | 4.0 | 0.00 | 0.00 | 0.00 | 88 | 996.5 |
| 20260506162219 | 81 | 0 | 0.0 | 3.0 | 0.00 | 0.00 | 0.00 | 89 | 996.4 |
| 20260506161719 | 81 | 200 | 0.0 | 3.0 | 0.00 | 0.00 | 0.00 | 89 | 996.2 |
| 20260506161218 | 81 | 0 | 0.0 | 1.0 | 0.00 | 0.00 | 0.00 | 89 | 996.2 |
| 20260506160717 | 81 | 0 | 0.0 | 1.0 | 0.00 | 0.00 | 0.00 | 89 | 996.3 |
| 20260506160216 | 80 | 0 | 0.0 | 1.0 | 0.00 | 0.00 | 0.00 | 89 | 996.3 |
| 20260506155715 | 80 | 0 | 0.0 | 1.0 | 0.00 | 0.00 | 0.00 | 89 | 996.1 |
| 20260506155209 | 80 | 0 | 0.0 | 0.0 | 0.00 | 0.00 | 0.00 | 89 | 996.1 |
| 20260506154711 | 80 | 86 | 0.0 | 0.0 | 0.00 | 0.00 | 0.00 | 90 | 996.0 |
| 20260506154207 | 80 | 86 | 0.0 | 1.0 | 0.00 | 0.00 | 0.00 | 89 | 996.0 |
| 20260506153706 | 80 | 86 | 0.0 | 1.0 | 0.00 | 0.00 | 0.00 | 90 | 996.0 |
| 20260506153204 | 80 | 11 | 0.0 | 1.0 | 0.00 | 0.00 | 0.00 | 90 | 995.9 |
| 20260506152702 | 80 | 87 | 0.0 | 1.0 | 0.00 | 0.00 | 0.00 | 90 | 996.0 |
| 20260506152201 | 80 | 99 | 0.0 | 1.0 | 0.00 | 0.00 | 0.00 | 90 | 996.1 |
| 20260506151657 | 80 | 99 | 0.0 | 1.0 | 0.00 | 0.00 | 0.00 | 90 | 996.0 |
| 20260506151157 | 80 | 52 | 0.0 | 1.0 | 0.00 | 0.00 | 0.00 | 90 | 996.1 |
| 20260506150657 | 80 | 49 | 0.0 | 1.0 | 0.00 | 0.00 | 0.00 | 91 | 996.1 |
| 20260506150155 | 80 | 211 | 0.0 | 3.0 | 0.00 | 0.00 | 0.00 | 91 | 995.9 |
| 20260506145655 | 79 | 214 | 1.0 | 3.0 | 0.00 | 0.00 | 0.00 | 90 | 995.7 |
| 20260506145416 | 79 | 136 | 0.0 | 2.0 | 0.00 | 0.00 | 0.00 | 91 | 995.7 |
| 20260506144651 | 79 | 56 | 0.0 | 1.0 | 0.00 | 0.00 | 0.00 | 91 | 995.7 |
| 20260506144149 | 79 | 189 | 0.0 | 2.0 | 0.00 | 0.00 | 0.00 | 92 | 995.7 |
| 20260506143649 | 79 | 189 | 0.0 | 2.0 | 0.00 | 0.00 | 0.00 | 92 | 995.6 |
| 20260506143146 | 79 | 189 | 0.0 | 2.0 | 0.00 | 0.00 | 0.00 | 92 | 995.5 |
| 20260506142645 | 78 | 310 | 0.0 | 2.0 | 0.00 | 0.00 | 0.00 | 92 | 995.4 |
| 20260506142141 | 78 | 235 | 1.0 | 2.0 | 0.00 | 0.00 | 0.00 | 92 | 995.4 |
| 20260506141638 | 78 | 192 | 0.0 | 2.0 | 0.00 | 0.00 | 0.00 | 92 | 995.4 |
| 20260506141356 | 78 | 192 | 0.0 | 2.0 | 0.00 | 0.00 | 0.00 | 93 | 995.5 |
| 20260506140902 | 78 | 125 | 0.0 | 0.0 | 0.00 | 0.00 | 0.00 | 93 | 995.4 |
| 20260506140138 | 78 | 125 | 0.0 | 0.0 | 0.00 | 0.00 | 0.00 | 93 | 995.5 |
| 20260506135637 | 78 | 125 | 0.0 | 0.0 | 0.00 | 0.00 | 0.00 | 93 | 995.5 |
| 20260506135137 | 78 | 0 | 0.0 | 0.0 | 0.00 | 0.00 | 0.00 | 93 | 995.5 |
| 20260506134635 | 77 | 207 | 0.0 | 0.0 | 0.00 | 0.00 | 0.00 | 93 | 995.6 |
| 20260506134133 | 77 | 207 | 0.0 | 0.0 | 0.00 | 0.00 | 0.00 | 93 | 995.7 |
| 20260506133633 | 77 | 207 | 0.0 | 0.0 | 0.00 | 0.00 | 0.00 | 94 | 995.6 |
| 20260506133129 | 77 | 208 | 0.0 | 0.0 | 0.00 | 0.00 | 0.00 | 94 | 995.7 |
| 20260506132630 | 77 | 208 | 0.0 | 0.0 | 0.00 | 0.00 | 0.00 | 94 | 995.8 |
| 20260506132131 | 77 | 208 | 0.0 | 0.0 | 0.00 | 0.00 | 0.00 | 94 | 995.7 |
| 20260506131850 | 77 | 207 | 0.0 | 0.0 | 0.00 | 0.00 | 0.00 | 94 | 995.7 |
| 20260506131130 | 76 | 0 | 0.0 | 0.0 | 0.00 | 0.00 | 0.00 | 94 | 995.7 |
| 20260506130629 | 76 | 208 | 0.0 | 0.0 | 0.00 | 0.00 | 0.00 | 94 | 995.8 |
| 20260506130129 | 76 | 0 | 0.0 | 0.0 | 0.00 | 0.00 | 0.00 | 94 | 995.7 |
| 20260506125627 | 76 | 0 | 0.0 | 0.0 | 0.00 | 0.00 | 0.00 | 93 | 995.6 |
| 20260506125352 | 76 | 0 | 0.0 | 0.0 | 0.00 | 0.00 | 0.00 | 94 | 995.5 |
| 20260506125103 | 76 | 0 | 0.0 | 0.0 | 0.00 | 0.00 | 0.00 | 94 | 995.4 |
| 20260506124122 | 76 | 0 | 0.0 | 0.0 | 0.00 | 0.00 | 0.00 | 93 | 995.4 |
| 20260506123621 | 76 | 0 | 0.0 | 0.0 | 0.00 | 0.00 | 0.00 | 93 | 995.4 |
| 20260506123122 | 76 | 208 | 0.0 | 0.0 | 0.00 | 0.00 | 0.00 | 93 | 995.4 |
| 20260506122622 | 76 | 0 | 0.0 | 0.0 | 0.00 | 0.00 | 0.00 | 94 | 995.3 |
| 20260506122121 | 76 | 0 | 0.0 | 0.0 | 0.00 | 0.00 | 0.00 | 94 | 995.2 |
| 20260506121622 | 76 | 0 | 0.0 | 0.0 | 0.00 | 0.00 | 0.00 | 93 | 995.3 |
| 20260506121121 | 76 | 0 | 0.0 | 0.0 | 0.00 | 0.00 | 0.00 | 93 | 995.3 |
| 20260506120623 | 76 | 0 | 0.0 | 0.0 | 0.00 | 0.00 | 0.00 | 93 | 995.2 |
| 20260506120121 | 76 | 0 | 0.0 | 0.0 | 0.00 | 0.00 | 0.00 | 93 | 995.1 |
| 20260506115621 | 76 | 0 | 0.0 | 0.0 | 0.00 | 0.00 | 0.00 | 93 | 995.1 |
| 20260506115121 | 76 | 0 | 0.0 | 0.0 | 0.00 | 0.00 | 0.00 | 93 | 995.1 |
| 20260506114621 | 76 | 0 | 0.0 | 0.0 | 0.00 | 0.00 | 0.00 | 93 | 995.0 |
| 20260506114122 | 76 | 0 | 0.0 | 0.0 | 0.00 | 0.00 | 0.00 | 93 | 994.9 |
| 20260506113621 | 76 | 0 | 0.0 | 0.0 | 0.00 | 0.00 | 0.00 | 93 | 995.0 |
| 20260506113121 | 76 | 0 | 0.0 | 0.0 | 0.00 | 0.00 | 0.00 | 93 | 995.0 |
| 20260506112843 | 76 | 0 | 0.0 | 0.0 | 0.00 | 0.00 | 0.00 | 92 | 994.9 |
| 20260506112121 | 76 | 0 | 0.0 | 0.0 | 0.00 | 0.00 | 0.00 | 92 | 994.9 |
| 20260506111840 | 76 | 0 | 0.0 | 0.0 | 0.00 | 0.00 | 0.00 | 92 | 994.9 |
| 20260506111121 | 76 | 0 | 0.0 | 2.0 | 0.00 | 0.00 | 0.00 | 92 | 994.8 |
| 20260506110621 | 76 | 0 | 0.0 | 2.0 | 0.00 | 0.00 | 0.00 | 92 | 994.7 |
| 20260506110604 | 76 | 0 | 0.0 | 1.0 | 0.00 | 0.00 | 0.00 | 92 | 994.6 |
| 20260506105621 | 76 | 0 | 0.0 | 0.0 | 0.00 | 0.00 | 0.00 | 92 | 994.4 |
| 20260506105121 | 76 | 0 | 0.0 | 3.0 | 0.00 | 0.00 | 0.00 | 92 | 994.3 |
| 20260506104621 | 76 | 0 | 1.0 | 3.0 | 0.00 | 0.00 | 0.00 | 92 | 994.2 |
| 20260506104122 | 77 | 0 | 1.0 | 3.0 | 0.00 | 0.00 | 0.00 | 92 | 994.2 |
| 20260506103618 | 77 | 0 | 1.0 | 5.0 | 0.00 | 0.00 | 0.00 | 92 | 994.1 |
| 20260506103117 | 77 | 0 | 2.0 | 5.0 | 0.00 | 0.00 | 0.00 | 92 | 994.0 |
| 20260506102618 | 77 | 0 | 1.0 | 4.0 | 0.00 | 0.00 | 0.00 | 92 | 994.0 |
| 20260506102349 | 77 | 0 | 1.0 | 4.0 | 0.00 | 0.00 | 0.00 | 92 | 994.0 |
| 20260506101617 | 77 | 0 | 2.0 | 8.0 | 0.00 | 0.00 | 0.00 | 92 | 994.1 |
| 20260506101116 | 77 | 0 | 2.0 | 8.0 | 0.00 | 0.00 | 0.00 | 92 | 994.0 |
| 20260506100617 | 77 | 0 | 1.0 | 6.0 | 0.00 | 0.00 | 0.00 | 92 | 994.1 |
| 20260506100118 | 77 | 0 | 2.0 | 5.0 | 0.00 | 0.00 | 0.00 | 92 | 994.1 |
| 20260506095618 | 77 | 0 | 2.0 | 6.0 | 0.00 | 0.00 | 0.00 | 92 | 994.1 |
| 20260506095339 | 77 | 0 | 1.0 | 6.0 | 0.00 | 0.00 | 0.00 | 92 | 994.0 |
| 20260506094618 | 77 | 0 | 1.0 | 4.0 | 0.00 | 0.00 | 0.00 | 92 | 993.9 |
| 20260506094532 | 76 | 360 | 1.0 | 4.0 | 0.00 | 0.00 | 0.00 | 92 | 1001.8 |
| 20260506094114 | 77 | 0 | 1.0 | 4.0 | 0.00 | 0.00 | 0.00 | 92 | 993.8 |
| 20260506094049 | 77 | 0 | 1.0 | 5.0 | 0.00 | 0.00 | 0.00 | 92 | 993.7 |
| 20260506093558 | 77 | 0 | 2.0 | 8.0 | 0.00 | 0.00 | 0.00 | 92 | 993.6 |
| 20260506092615 | 77 | 0 | 2.0 | 8.0 | 0.00 | 0.00 | 0.00 | 92 | 993.7 |
| 20260506092116 | 77 | 0 | 2.0 | 6.0 | 0.00 | 0.00 | 0.00 | 92 | 993.7 |
| 20260506091611 | 77 | 0 | 2.0 | 8.0 | 0.00 | 0.00 | 0.00 | 92 | 993.7 |
| 20260506091110 | 77 | 0 | 3.0 | 8.0 | 0.00 | 0.00 | 0.00 | 92 | 993.7 |
| 20260506090612 | 77 | 0 | 2.0 | 5.0 | 0.00 | 0.00 | 0.00 | 92 | 993.7 |
| 20260506090111 | 77 | 0 | 2.0 | 4.0 | 0.00 | 0.00 | 0.00 | 92 | 993.7 |
| 20260506085612 | 77 | 0 | 2.0 | 5.0 | 0.00 | 0.00 | 0.00 | 92 | 993.7 |
| 20260506085111 | 77 | 0 | 2.0 | 6.0 | 0.00 | 0.00 | 0.00 | 92 | 993.7 |
| 20260506084611 | 77 | 188 | 2.0 | 8.0 | 0.00 | 0.00 | 0.00 | 91 | 993.7 |
| 20260506084111 | 77 | 146 | 3.0 | 8.0 | 0.00 | 0.00 | 0.00 | 91 | 993.5 |
| 20260506083611 | 77 | 0 | 2.0 | 6.0 | 0.00 | 0.00 | 0.00 | 91 | 993.6 |
| 20260506083111 | 77 | 0 | 2.0 | 6.0 | 0.00 | 0.00 | 0.00 | 91 | 993.8 |
| 20260506082608 | 77 | 0 | 2.0 | 8.0 | 0.00 | 0.00 | 0.00 | 91 | 993.8 |
| 20260506082108 | 77 | 0 | 2.0 | 8.0 | 0.00 | 0.00 | 0.00 | 91 | 993.7 |
| 20260506081609 | 77 | 0 | 2.0 | 6.0 | 0.00 | 0.00 | 0.00 | 91 | 993.7 |
| 20260506081109 | 78 | 0 | 2.0 | 9.0 | 0.00 | 0.00 | 0.00 | 91 | 993.8 |
| 20260506080604 | 78 | 0 | 2.0 | 6.0 | 0.00 | 0.00 | 0.00 | 91 | 994.0 |
| 20260506080330 | 78 | 0 | 2.0 | 6.0 | 0.00 | 0.00 | 0.00 | 91 | 994.0 |
| 20260506073055 | 78 | 0 | 2.0 | 7.0 | 0.00 | 0.00 | 0.00 | 90 | 994.5 |
| 20260506072552 | 78 | 208 | 2.0 | 7.0 | 0.00 | 0.00 | 0.00 | 90 | 994.5 |
| 20260506072053 | 78 | 0 | 2.0 | 8.0 | 0.00 | 0.00 | 0.00 | 90 | 994.5 |
| 20260506071811 | 78 | 0 | 2.0 | 8.0 | 0.00 | 0.00 | 0.00 | 90 | 994.6 |
| 20260506071050 | 78 | 0 | 2.0 | 5.0 | 0.00 | 0.00 | 0.00 | 90 | 994.7 |
| 20260506070550 | 78 | 0 | 2.0 | 5.0 | 0.00 | 0.00 | 0.00 | 90 | 994.7 |
| 20260506062037 | 78 | 0 | 2.0 | 5.0 | 0.00 | 0.00 | 0.00 | 89 | 994.9 |
| 20260506061535 | 78 | 0 | 2.0 | 5.0 | 0.00 | 0.00 | 0.00 | 89 | 994.8 |
| 20260506061032 | 78 | 0 | 2.0 | 6.0 | 0.00 | 0.00 | 0.00 | 89 | 994.9 |
| 20260506060533 | 78 | 0 | 2.0 | 6.0 | 0.00 | 0.00 | 0.00 | 89 | 994.9 |
| 20260506051016 | 79 | 0 | 2.0 | 6.0 | 0.00 | 0.00 | 0.00 | 88 | 994.7 |
| 20260506050514 | 79 | 0 | 2.0 | 6.0 | 0.00 | 0.00 | 0.00 | 88 | 994.6 |
| 20260506045013 | 79 | 0 | 4.0 | 13.0 | 0.00 | 0.00 | 0.00 | 87 | 994.6 |
| 20260506044513 | 79 | 0 | 3.0 | 9.0 | 0.00 | 0.00 | 0.00 | 87 | 994.6 |
| 20260506044013 | 79 | 0 | 3.0 | 14.0 | 0.00 | 0.00 | 0.00 | 87 | 994.6 |
| 20260506043513 | 79 | 0 | 3.0 | 14.0 | 0.00 | 0.00 | 0.00 | 87 | 994.6 |
| 20260506043014 | 79 | 0 | 2.0 | 6.0 | 0.00 | 0.00 | 0.00 | 87 | 994.6 |
| 20260506042737 | 79 | 0 | 2.0 | 6.0 | 0.00 | 0.00 | 0.00 | 87 | 994.6 |
| 20260506042014 | 79 | 0 | 2.0 | 8.0 | 0.00 | 0.00 | 0.00 | 87 | 994.6 |
| 20260506041512 | 79 | 0 | 2.0 | 8.0 | 0.00 | 0.00 | 0.00 | 87 | 994.7 |
| 20260506041500 | 79 | 0 | 2.0 | 6.0 | 0.00 | 0.00 | 0.00 | 87 | 994.7 |
| 20260506040506 | 79 | 0 | 2.0 | 6.0 | 0.00 | 0.00 | 0.00 | 87 | 994.7 |
| 20260506040007 | 79 | 0 | 2.0 | 6.0 | 0.00 | 0.00 | 0.00 | 87 | 994.7 |
| 20260506035506 | 79 | 0 | 1.0 | 6.0 | 0.00 | 0.00 | 0.00 | 87 | 994.5 |
| 20260506035005 | 79 | 0 | 2.0 | 5.0 | 0.00 | 0.00 | 0.00 | 87 | 994.4 |
| 20260506034505 | 79 | 0 | 2.0 | 5.0 | 0.00 | 0.00 | 0.00 | 86 | 994.4 |
| 20260506034005 | 79 | 0 | 2.0 | 10.0 | 0.00 | 0.00 | 0.00 | 86 | 994.3 |
| 20260506033725 | 79 | 0 | 2.0 | 10.0 | 0.00 | 0.00 | 0.00 | 86 | 994.3 |
| 20260506033227 | 79 | 0 | 2.0 | 5.0 | 0.00 | 0.00 | 0.00 | 86 | 994.4 |
| 20260506032505 | 80 | 0 | 2.0 | 6.0 | 0.00 | 0.00 | 0.00 | 86 | 994.2 |
| 20260506032005 | 80 | 0 | 2.0 | 6.0 | 0.00 | 0.00 | 0.00 | 86 | 994.2 |
| 20260506031504 | 80 | 0 | 1.0 | 8.0 | 0.00 | 0.00 | 0.00 | 86 | 994.3 |
| 20260506031005 | 80 | 0 | 2.0 | 8.0 | 0.00 | 0.00 | 0.00 | 85 | 994.2 |
| 20260506030505 | 80 | 0 | 2.0 | 4.0 | 0.00 | 0.00 | 0.00 | 85 | 994.2 |
| 20260506030005 | 80 | 0 | 2.0 | 6.0 | 0.00 | 0.00 | 0.00 | 85 | 994.1 |
| 20260506025505 | 80 | 0 | 2.0 | 6.0 | 0.00 | 0.00 | 0.00 | 85 | 994.0 |
| 20260506025005 | 80 | 0 | 2.0 | 9.0 | 0.00 | 0.00 | 0.00 | 85 | 994.0 |
| 20260506024505 | 80 | 0 | 2.0 | 9.0 | 0.00 | 0.00 | 0.00 | 85 | 993.9 |
| 20260506024005 | 80 | 0 | 2.0 | 6.0 | 0.00 | 0.00 | 0.00 | 85 | 993.8 |
| 20260506023723 | 80 | 0 | 1.0 | 4.0 | 0.00 | 0.00 | 0.00 | 85 | 993.7 |
| 20260506023004 | 80 | 0 | 1.0 | 4.0 | 0.00 | 0.00 | 0.00 | 85 | 993.7 |
| 20260506022551 | 80 | 0 | 0.0 | 5.0 | 0.00 | 0.00 | 0.00 | 85 | 993.6 |
| 20260506021505 | 80 | 0 | 1.0 | 6.0 | 0.00 | 0.00 | 0.00 | 84 | 993.4 |
| 20260506021005 | 80 | 0 | 2.0 | 6.0 | 0.00 | 0.00 | 0.00 | 84 | 993.4 |
| 20260506020505 | 80 | 0 | 1.0 | 3.0 | 0.00 | 0.00 | 0.00 | 84 | 993.3 |
| 20260506020001 | 80 | 0 | 2.0 | 5.0 | 0.00 | 0.00 | 0.00 | 84 | 993.3 |
| 20260506015725 | 80 | 0 | 2.0 | 5.0 | 0.00 | 0.00 | 0.00 | 84 | 993.1 |
| 20260506015444 | 80 | 0 | 2.0 | 6.0 | 0.00 | 0.00 | 0.00 | 84 | 993.1 |
| 20260506014501 | 80 | 0 | 3.0 | 8.0 | 0.00 | 0.00 | 0.00 | 84 | 993.0 |
| 20260506014221 | 80 | 0 | 2.0 | 8.0 | 0.00 | 0.00 | 0.00 | 84 | 992.8 |
| 20260506013501 | 80 | 0 | 2.0 | 6.0 | 0.00 | 0.00 | 0.00 | 84 | 992.8 |
| 20260506013001 | 80 | 0 | 2.0 | 6.0 | 0.00 | 0.00 | 0.00 | 83 | 992.7 |
| 20260506012723 | 81 | 0 | 2.0 | 6.0 | 0.00 | 0.00 | 0.00 | 83 | 992.7 |
| 20260506012222 | 81 | 0 | 2.0 | 6.0 | 0.00 | 0.00 | 0.00 | 83 | 992.6 |
| 20260506011501 | 81 | 0 | 2.0 | 5.0 | 0.00 | 0.00 | 0.00 | 83 | 992.6 |
| 20260506010958 | 81 | 0 | 3.0 | 6.0 | 0.00 | 0.00 | 0.00 | 83 | 992.5 |
| 20260506010459 | 81 | 0 | 3.0 | 9.0 | 0.00 | 0.00 | 0.00 | 83 | 992.4 |
| 20260506005958 | 81 | 0 | 2.0 | 9.0 | 0.00 | 0.00 | 0.00 | 83 | 992.4 |
| 20260506005459 | 81 | 0 | 2.0 | 6.0 | 0.00 | 0.00 | 0.00 | 82 | 992.4 |
| 20260506004957 | 81 | 0 | 2.0 | 6.0 | 0.00 | 0.00 | 0.00 | 82 | 992.2 |
| 20260506004455 | 81 | 0 | 2.0 | 5.0 | 0.00 | 0.00 | 0.00 | 82 | 992.3 |
| 20260506003954 | 81 | 0 | 2.0 | 6.0 | 0.00 | 0.00 | 0.00 | 82 | 992.3 |
| 20260506003454 | 82 | 0 | 2.0 | 6.0 | 0.00 | 0.00 | 0.00 | 82 | 992.2 |
| 20260506002953 | 82 | 0 | 2.0 | 5.0 | 0.00 | 0.00 | 0.00 | 82 | 992.3 |
| 20260506002452 | 82 | 0 | 2.0 | 4.0 | 0.00 | 0.00 | 0.00 | 82 | 992.3 |
| 20260506001951 | 82 | 0 | 2.0 | 10.0 | 0.00 | 0.00 | 0.00 | 82 | 992.3 |
| 20260506001451 | 82 | 0 | 3.0 | 10.0 | 0.00 | 0.00 | 0.00 | 81 | 992.3 |
| 20260506001217 | 82 | 0 | 3.0 | 11.0 | 0.00 | 0.00 | 0.00 | 81 | 992.3 |
| 20260506000451 | 82 | 0 | 4.0 | 11.0 | 0.00 | 0.00 | 0.00 | 81 | 992.4 |
| 20260505235949 | 82 | 0 | 4.0 | 13.0 | 0.00 | 0.00 | 0.00 | 81 | 992.3 |
| 20260505235931 | 82 | 0 | 3.0 | 13.0 | 0.00 | 0.00 | 0.00 | 81 | 992.1 |
| 20260505234945 | 82 | 0 | 2.0 | 5.0 | 0.00 | 0.00 | 0.00 | 81 | 992.1 |
| 20260505234445 | 83 | 0 | 2.0 | 6.0 | 0.00 | 0.00 | 0.00 | 81 | 992.2 |
| 20260505233945 | 83 | 0 | 2.0 | 8.0 | 0.00 | 0.00 | 0.00 | 81 | 992.3 |
| 20260505233700 | 83 | 0 | 3.0 | 11.0 | 0.00 | 0.00 | 0.00 | 80 | 992.2 |
| 20260505232939 | 83 | 0 | 3.0 | 11.0 | 0.00 | 0.00 | 0.00 | 80 | 992.1 |
| 20260505232439 | 83 | 0 | 2.0 | 8.0 | 0.00 | 0.00 | 0.00 | 81 | 992.0 |
| 20260505231938 | 83 | 0 | 2.0 | 6.0 | 0.00 | 0.00 | 0.00 | 81 | 992.0 |
| 20260505231437 | 83 | 0 | 2.0 | 6.0 | 0.00 | 0.00 | 0.00 | 81 | 991.9 |
| 20260505231424 | 83 | 0 | 2.0 | 6.0 | 0.00 | 0.00 | 0.00 | 80 | 992.0 |
| 20260505230436 | 83 | 0 | 2.0 | 6.0 | 0.00 | 0.00 | 0.00 | 80 | 992.1 |
| 20260505225937 | 83 | 0 | 3.0 | 10.0 | 0.00 | 0.00 | 0.00 | 80 | 992.2 |
| 20260505225435 | 83 | 0 | 3.0 | 10.0 | 0.00 | 0.00 | 0.00 | 80 | 992.3 |
| 20260505224935 | 84 | 0 | 2.0 | 10.0 | 0.00 | 0.00 | 0.00 | 80 | 992.1 |
| 20260505224435 | 84 | 0 | 2.0 | 11.0 | 0.00 | 0.00 | 0.00 | 79 | 991.9 |
| 20260505223933 | 84 | 0 | 2.0 | 11.0 | 0.00 | 0.00 | 0.00 | 79 | 992.1 |
| 20260505223432 | 84 | 0 | 3.0 | 11.0 | 0.00 | 0.00 | 0.00 | 78 | 992.0 |
| 20260505222930 | 84 | 0 | 4.0 | 11.0 | 0.00 | 0.00 | 0.00 | 78 | 991.9 |
| 20260505222428 | 84 | 0 | 4.0 | 12.0 | 0.00 | 0.00 | 0.00 | 78 | 992.0 |
| 20260505222147 | 85 | 0 | 2.0 | 12.0 | 0.00 | 0.00 | 0.00 | 78 | 992.0 |
| 20260505221423 | 85 | 0 | 3.0 | 10.0 | 0.00 | 0.00 | 0.00 | 79 | 992.1 |
| 20260505220924 | 85 | 0 | 3.0 | 11.0 | 0.00 | 0.00 | 0.00 | 79 | 992.1 |
| 20260505220424 | 84 | 0 | 3.0 | 11.0 | 0.00 | 0.00 | 0.00 | 78 | 992.0 |
| 20260505220143 | 85 | 0 | 3.0 | 10.0 | 0.00 | 0.00 | 0.00 | 79 | 992.0 |
| 20260505215424 | 84 | 0 | 4.0 | 10.0 | 0.00 | 0.00 | 0.00 | 78 | 992.2 |
| 20260505214921 | 84 | 151 | 3.0 | 13.0 | 0.00 | 0.00 | 0.00 | 78 | 992.3 |
| 20260505214639 | 84 | 0 | 4.0 | 13.0 | 0.00 | 0.00 | 0.00 | 78 | 992.4 |
| 20260505213918 | 84 | 0 | 4.0 | 13.0 | 0.00 | 0.00 | 0.00 | 78 | 992.5 |
| 20260505213642 | 84 | 0 | 2.0 | 11.0 | 0.00 | 0.00 | 0.00 | 79 | 992.6 |
| 20260505212919 | 84 | 0 | 2.0 | 8.0 | 0.00 | 0.00 | 0.00 | 80 | 992.6 |